GFSNW_prec_precacc12_300.txt.gz
Total_Precipitation_Accumulation
0.01 0.01 0.01 0.02 0.03 0.04 0.00 0.00 0.00 0.00 0.00 0.00 0.00 0.00 0.00 0.00 0.00 0.00 0.00 0.00 0.00 0.01 0.02 0.02 0.00 0.00 0.01 0.01 0.04 0.06 0.22 0.31 0.17 0.10 0.03 0.02 0.01 0.01 0.00 0.01 0.00 0.00 0.00 0.00
0.01 0.01 0.01 0.02 0.04 0.09 0.01 0.00 0.00 0.00 0.00 0.01 0.02 0.00 0.00 0.00 0.00 0.00 0.00 0.00 0.00 0.00 0.01 0.07 0.00 0.00 0.00 0.00 0.01 0.09 0.16 0.28 0.21 0.20 0.28 0.15 0.08 0.03 0.01 0.00 0.00 0.00 0.00 0.00
0.01 0.02 0.02 0.03 0.04 0.09 0.01 0.00 0.00 0.00 0.00 0.00 0.03 0.05 0.02 0.00 0.00 0.00 0.00 0.00 0.00 0.01 0.01 0.01 0.02 0.01 0.00 0.00 0.00 0.11 0.40 0.19 0.14 0.15 0.31 0.40 0.32 0.17 0.12 0.03 0.01 0.00 0.00 0.00
0.01 0.02 0.02 0.03 0.05 0.09 0.00 0.02 0.02 0.05 0.02 0.00 0.01 0.05 0.04 0.03 0.05 0.01 0.00 0.00 0.00 0.04 0.07 0.01 0.00 0.00 0.01 0.00 0.00 0.09 0.20 0.13 0.06 0.01 0.01 0.09 0.18 0.19 0.13 0.10 0.02 0.01 0.00 0.00
0.01 0.02 0.02 0.03 0.05 0.09 0.02 0.08 0.17 0.14 0.04 0.00 0.01 0.02 0.03 0.05 0.06 0.07 0.01 0.00 0.00 0.00 0.02 0.04 0.03 0.04 0.07 0.04 0.01 0.02 0.08 0.10 0.19 0.14 0.09 0.07 0.11 0.12 0.14 0.08 0.04 0.06 0.04 0.02
0.02 0.02 0.03 0.03 0.05 0.10 0.13 0.14 0.22 0.24 0.04 0.00 0.02 0.02 0.09 0.10 0.12 0.04 0.00 0.00 0.00 0.00 0.00 0.00 0.00 0.01 0.15 0.21 0.16 0.08 0.07 0.14 0.31 0.29 0.27 0.20 0.15 0.27 0.25 0.28 0.33 0.27 0.25 0.15
0.02 0.03 0.04 0.05 0.05 0.12 0.13 0.13 0.25 0.22 0.05 0.00 0.00 0.00 0.04 0.06 0.03 0.05 0.00 0.00 0.00 0.00 0.00 0.00 0.00 0.03 0.22 0.22 0.23 0.17 0.14 0.15 0.21 0.40 0.51 0.73 0.59 0.28 0.35 0.34 0.35 0.36 0.23 0.08
0.02 0.03 0.04 0.05 0.05 0.09 0.09 0.08 0.22 0.23 0.09 0.00 0.00 0.01 0.02 0.00 0.00 0.00 0.00 0.00 0.00 0.00 0.00 0.00 0.00 0.02 0.02 0.02 0.10 0.20 0.28 0.21 0.16 0.45 0.61 0.71 0.50 0.43 0.53 0.49 0.45 0.34 0.27 0.12
0.02 0.03 0.04 0.03 0.04 0.06 0.06 0.04 0.08 0.18 0.17 0.01 0.00 0.00 0.00 0.02 0.01 0.00 0.00 0.00 0.00 0.00 0.00 0.00 0.01 0.04 0.01 0.02 0.01 0.02 0.04 0.13 0.21 0.31 0.37 0.44 0.49 0.62 0.70 0.33 0.34 0.29 0.24 0.16
0.03 0.03 0.03 0.02 0.03 0.04 0.05 0.02 0.02 0.16 0.20 0.01 0.00 0.01 0.01 0.01 0.04 0.03 0.00 0.00 0.00 0.00 0.00 0.00 0.00 0.02 0.00 0.02 0.02 0.04 0.02 0.04 0.11 0.28 0.39 0.37 0.39 0.39 0.55 0.55 0.49 0.34 0.39 0.27
0.03 0.02 0.02 0.02 0.03 0.02 0.03 0.01 0.00 0.09 0.14 0.01 0.00 0.00 0.00 0.01 0.03 0.05 0.01 0.01 0.01 0.03 0.01 0.01 0.00 0.00 0.00 0.01 0.06 0.12 0.08 0.03 0.05 0.16 0.26 0.23 0.10 0.12 0.37 0.49 0.29 0.32 0.35 0.37
0.02 0.01 0.01 0.01 0.02 0.02 0.02 0.03 0.02 0.04 0.12 0.02 0.00 0.00 0.00 0.00 0.00 0.04 0.04 0.02 0.07 0.11 0.11 0.06 0.03 0.00 0.01 0.01 0.01 0.02 0.05 0.03 0.10 0.13 0.26 0.26 0.20 0.26 0.24 0.15 0.09 0.05 0.14 0.22
0.01 0.01 0.00 0.01 0.02 0.01 0.03 0.03 0.01 0.03 0.03 0.00 0.00 0.00 0.00 0.00 0.00 0.00 0.03 0.00 0.04 0.07 0.16 0.23 0.13 0.04 0.05 0.03 0.02 0.02 0.00 0.00 0.01 0.01 0.09 0.03 0.13 0.09 0.00 0.00 0.00 0.01 0.02 0.08
0.00 0.00 0.00 0.01 0.01 0.01 0.02 0.01 0.01 0.00 0.01 0.02 0.00 0.00 0.00 0.00 0.00 0.00 0.00 0.00 0.02 0.09 0.18 0.23 0.16 0.12 0.08 0.06 0.03 0.01 0.00 0.00 0.00 0.00 0.00 0.00 0.03 0.00 0.00 0.00 0.00 0.00 0.00 0.02
0.00 0.00 0.00 0.00 0.00 0.01 0.01 0.00 0.00 0.00 0.02 0.02 0.00 0.00 0.00 0.00 0.00 0.00 0.00 0.00 0.02 0.05 0.10 0.13 0.17 0.15 0.13 0.08 0.02 0.02 0.03 0.04 0.03 0.01 0.00 0.03 0.01 0.00 0.00 0.00 0.00 0.00 0.01 0.03
0.00 0.00 0.00 0.00 0.00 0.01 0.00 0.00 0.00 0.01 0.04 0.08 0.01 0.00 0.00 0.00 0.00 0.00 0.00 0.00 0.03 0.10 0.14 0.18 0.16 0.13 0.17 0.08 0.04 0.03 0.02 0.02 0.04 0.03 0.00 0.02 0.00 0.00 0.00 0.00 0.00 0.01 0.03 0.04
0.00 0.00 0.00 0.00 0.01 0.01 0.00 0.00 0.01 0.03 0.04 0.12 0.02 0.00 0.00 0.00 0.00 0.00 0.00 0.01 0.05 0.11 0.17 0.11 0.07 0.06 0.06 0.03 0.03 0.02 0.01 0.00 0.00 0.00 0.02 0.02 0.00 0.01 0.00 0.00 0.00 0.01 0.01 0.02
0.00 0.00 0.00 0.00 0.02 0.01 0.00 0.00 0.00 0.02 0.03 0.02 0.01 0.00 0.00 0.00 0.00 0.00 0.00 0.01 0.07 0.04 0.04 0.02 0.01 0.00 0.01 0.02 0.01 0.01 0.01 0.00 0.00 0.00 0.01 0.02 0.00 0.00 0.00 0.00 0.00 0.00 0.00 0.01
0.00 0.00 0.00 0.00 0.00 0.00 0.00 0.00 0.01 0.00 0.00 0.01 0.01 0.01 0.00 0.00 0.00 0.00 0.00 0.02 0.06 0.01 0.00 0.00 0.00 0.00 0.01 0.03 0.03 0.01 0.02 0.05 0.04 0.01 0.00 0.00 0.00 0.00 0.00 0.00 0.01 0.01 0.01 0.02
0.00 0.00 0.00 0.00 0.00 0.00 0.00 0.00 0.02 0.00 0.00 0.00 0.01 0.01 0.00 0.00 0.00 0.00 0.00 0.03 0.05 0.02 0.03 0.00 0.00 0.01 0.02 0.03 0.04 0.04 0.03 0.03 0.03 0.03 0.03 0.03 0.01 0.01 0.02 0.03 0.04 0.05 0.04 0.03
0.00 0.00 0.00 0.00 0.00 0.00 0.00 0.00 0.00 0.00 0.00 0.00 0.00 0.00 0.00 0.00 0.00 0.01 0.02 0.04 0.04 0.03 0.02 0.00 0.01 0.01 0.02 0.02 0.02 0.02 0.03 0.03 0.03 0.05 0.06 0.06 0.07 0.05 0.04 0.03 0.03 0.03 0.04 0.05
0.00 0.00 0.00 0.00 0.00 0.00 0.00 0.00 0.00 0.00 0.00 0.00 0.00 0.00 0.00 0.00 0.01 0.04 0.02 0.03 0.03 0.03 0.01 0.01 0.01 0.02 0.03 0.04 0.04 0.04 0.03 0.03 0.02 0.03 0.02 0.03 0.04 0.06 0.06 0.05 0.04 0.05 0.06 0.06
0.00 0.00 0.00 0.00 0.00 0.00 0.00 0.00 0.00 0.00 0.00 0.00 0.00 0.00 0.00 0.00 0.02 0.03 0.03 0.03 0.03 0.03 0.02 0.02 0.03 0.04 0.05 0.05 0.05 0.04 0.04 0.03 0.03 0.02 0.03 0.03 0.03 0.03 0.04 0.04 0.05 0.06 0.05 0.07
0.00 0.00 0.00 0.00 0.00 0.00 0.00 0.00 0.00 0.00 0.00 0.00 0.00 0.00 0.01 0.01 0.02 0.03 0.03 0.04 0.03 0.04 0.03 0.03 0.06 0.06 0.06 0.06 0.06 0.05 0.04 0.04 0.04 0.04 0.04 0.03 0.03 0.03 0.03 0.04 0.05 0.05 0.05 0.08
0.00 0.00 0.00 0.00 0.01 0.01 0.01 0.00 0.00 0.00 0.00 0.00 0.01 0.01 0.01 0.02 0.02 0.02 0.03 0.04 0.05 0.05 0.05 0.06 0.06 0.07 0.07 0.06 0.05 0.05 0.05 0.05 0.04 0.04 0.03 0.04 0.04 0.03 0.03 0.04 0.05 0.05 0.06 0.06
0.00 0.00 0.00 0.00 0.00 0.00 0.00 0.00 0.00 0.00 0.00 0.01 0.01 0.01 0.01 0.02 0.02 0.02 0.03 0.05 0.05 0.06 0.06 0.06 0.06 0.06 0.06 0.06 0.05 0.06 0.06 0.05 0.04 0.04 0.04 0.04 0.03 0.03 0.04 0.04 0.04 0.05 0.06 0.06
0.00 0.00 0.00 0.00 0.00 0.00 0.00 0.00 0.00 0.00 0.00 0.00 0.00 0.01 0.01 0.02 0.02 0.03 0.04 0.05 0.06 0.06 0.06 0.06 0.07 0.08 0.06 0.05 0.05 0.05 0.05 0.04 0.04 0.03 0.03 0.02 0.02 0.02 0.02 0.02 0.03 0.04 0.05 0.06

GFSNW_prec_precacc12_303.txt.gz
Total_Precipitation_Accumulation
0.01 0.01 0.01 0.01 0.02 0.03 0.00 0.00 0.00 0.00 0.00 0.00 0.00 0.00 0.00 0.00 0.00 0.00 0.00 0.00 0.01 0.03 0.03 0.04 0.01 0.01 0.01 0.00 0.00 0.02 0.11 0.20 0.14 0.11 0.05 0.05 0.09 0.04 0.02 0.02 0.01 0.00 0.00 0.00
0.01 0.01 0.02 0.02 0.03 0.06 0.01 0.00 0.00 0.00 0.00 0.01 0.02 0.00 0.00 0.00 0.00 0.00 0.00 0.00 0.01 0.02 0.04 0.11 0.00 0.00 0.00 0.00 0.01 0.02 0.04 0.15 0.15 0.25 0.29 0.19 0.23 0.24 0.09 0.02 0.01 0.00 0.00 0.00
0.02 0.02 0.02 0.03 0.03 0.06 0.01 0.00 0.00 0.00 0.00 0.00 0.03 0.03 0.01 0.00 0.00 0.00 0.00 0.00 0.00 0.03 0.01 0.02 0.02 0.02 0.01 0.00 0.00 0.01 0.12 0.07 0.09 0.20 0.44 0.50 0.40 0.25 0.17 0.08 0.06 0.01 0.00 0.00
0.02 0.02 0.02 0.03 0.04 0.05 0.00 0.01 0.02 0.05 0.02 0.00 0.01 0.02 0.01 0.01 0.04 0.01 0.00 0.00 0.00 0.05 0.09 0.02 0.00 0.00 0.01 0.00 0.00 0.00 0.01 0.01 0.01 0.02 0.07 0.13 0.20 0.22 0.17 0.12 0.04 0.07 0.02 0.00
0.02 0.02 0.03 0.03 0.04 0.05 0.02 0.06 0.10 0.14 0.05 0.00 0.01 0.00 0.01 0.02 0.06 0.07 0.01 0.00 0.00 0.00 0.04 0.06 0.05 0.05 0.07 0.04 0.02 0.01 0.01 0.01 0.02 0.10 0.11 0.08 0.12 0.15 0.17 0.10 0.06 0.07 0.04 0.02
0.02 0.03 0.03 0.04 0.04 0.06 0.08 0.05 0.08 0.23 0.04 0.00 0.01 0.01 0.02 0.02 0.07 0.02 0.00 0.00 0.00 0.00 0.00 0.00 0.00 0.02 0.15 0.21 0.20 0.09 0.03 0.04 0.09 0.16 0.19 0.15 0.11 0.31 0.29 0.32 0.38 0.29 0.27 0.16
0.03 0.03 0.04 0.04 0.04 0.08 0.11 0.06 0.13 0.20 0.04 0.00 0.00 0.00 0.00 0.00 0.00 0.03 0.00 0.00 0.00 0.00 0.00 0.00 0.00 0.03 0.20 0.20 0.17 0.13 0.12 0.12 0.15 0.20 0.43 0.47 0.48 0.27 0.35 0.33 0.33 0.33 0.24 0.08
0.03 0.03 0.03 0.04 0.04 0.06 0.07 0.05 0.11 0.16 0.08 0.00 0.00 0.00 0.00 0.00 0.00 0.00 0.00 0.00 0.00 0.00 0.00 0.00 0.00 0.01 0.02 0.01 0.05 0.13 0.22 0.17 0.15 0.27 0.47 0.56 0.34 0.33 0.44 0.41 0.34 0.26 0.22 0.11
0.03 0.03 0.03 0.03 0.03 0.04 0.04 0.02 0.05 0.12 0.16 0.01 0.00 0.00 0.00 0.01 0.01 0.00 0.00 0.00 0.00 0.00 0.00 0.00 0.00 0.00 0.00 0.00 0.00 0.01 0.02 0.07 0.14 0.23 0.26 0.30 0.31 0.44 0.62 0.32 0.27 0.19 0.19 0.14
0.03 0.03 0.03 0.02 0.02 0.03 0.04 0.01 0.02 0.12 0.20 0.01 0.00 0.01 0.02 0.01 0.04 0.02 0.00 0.00 0.00 0.00 0.00 0.00 0.00 0.01 0.00 0.01 0.01 0.02 0.00 0.01 0.07 0.21 0.24 0.21 0.26 0.31 0.41 0.38 0.29 0.14 0.22 0.21
0.03 0.03 0.02 0.01 0.01 0.02 0.03 0.01 0.01 0.11 0.15 0.01 0.00 0.00 0.00 0.01 0.02 0.03 0.01 0.01 0.01 0.03 0.01 0.02 0.01 0.01 0.00 0.01 0.03 0.04 0.02 0.01 0.04 0.13 0.15 0.13 0.07 0.08 0.24 0.29 0.16 0.16 0.18 0.26
0.03 0.02 0.01 0.01 0.01 0.02 0.02 0.03 0.02 0.06 0.12 0.02 0.00 0.00 0.00 0.00 0.00 0.03 0.02 0.02 0.05 0.08 0.13 0.08 0.05 0.02 0.01 0.01 0.02 0.00 0.01 0.01 0.04 0.09 0.16 0.13 0.11 0.16 0.12 0.06 0.05 0.03 0.08 0.15
0.02 0.01 0.00 0.01 0.01 0.01 0.02 0.03 0.02 0.05 0.05 0.00 0.00 0.00 0.00 0.00 0.00 0.00 0.03 0.00 0.04 0.06 0.17 0.23 0.15 0.06 0.05 0.04 0.01 0.00 0.00 0.00 0.01 0.01 0.04 0.01 0.08 0.05 0.00 0.00 0.00 0.00 0.01 0.05
0.01 0.00 0.00 0.01 0.00 0.01 0.02 0.02 0.02 0.01 0.01 0.02 0.00 0.00 0.00 0.00 0.00 0.00 0.00 0.00 0.02 0.10 0.16 0.21 0.15 0.13 0.08 0.04 0.02 0.00 0.00 0.00 0.00 0.00 0.00 0.00 0.02 0.00 0.00 0.00 0.00 0.00 0.00 0.00
0.01 0.00 0.00 0.00 0.00 0.01 0.01 0.00 0.00 0.00 0.02 0.02 0.00 0.00 0.00 0.00 0.00 0.00 0.00 0.00 0.03 0.05 0.08 0.11 0.15 0.11 0.09 0.03 0.00 0.01 0.01 0.02 0.02 0.01 0.00 0.02 0.00 0.00 0.00 0.00 0.00 0.00 0.02 0.03
0.00 0.00 0.00 0.00 0.00 0.01 0.00 0.00 0.00 0.02 0.05 0.07 0.01 0.00 0.00 0.00 0.00 0.00 0.00 0.00 0.03 0.10 0.13 0.14 0.09 0.07 0.13 0.06 0.02 0.02 0.01 0.02 0.03 0.02 0.00 0.01 0.00 0.00 0.00 0.01 0.01 0.01 0.03 0.03
0.00 0.00 0.00 0.00 0.01 0.01 0.00 0.00 0.01 0.04 0.06 0.10 0.02 0.00 0.00 0.00 0.00 0.00 0.00 0.01 0.03 0.05 0.08 0.06 0.05 0.05 0.06 0.03 0.03 0.02 0.01 0.00 0.00 0.00 0.02 0.01 0.00 0.01 0.00 0.01 0.00 0.00 0.01 0.01
0.00 0.00 0.00 0.00 0.03 0.01 0.01 0.00 0.00 0.03 0.04 0.02 0.01 0.00 0.00 0.00 0.00 0.00 0.00 0.00 0.01 0.00 0.01 0.01 0.01 0.01 0.02 0.02 0.02 0.02 0.01 0.01 0.00 0.01 0.01 0.02 0.01 0.00 0.00 0.00 0.00 0.00 0.00 0.00
0.00 0.00 0.00 0.00 0.00 0.00 0.00 0.00 0.01 0.00 0.01 0.01 0.01 0.00 0.00 0.00 0.00 0.00 0.00 0.01 0.02 0.01 0.00 0.00 0.00 0.01 0.02 0.04 0.04 0.02 0.03 0.05 0.05 0.02 0.00 0.00 0.00 0.00 0.00 0.00 0.01 0.01 0.01 0.01
0.00 0.00 0.00 0.00 0.00 0.00 0.00 0.00 0.03 0.00 0.00 0.00 0.00 0.00 0.00 0.00 0.00 0.00 0.00 0.02 0.03 0.03 0.03 0.00 0.00 0.02 0.04 0.05 0.06 0.06 0.05 0.05 0.05 0.04 0.03 0.03 0.01 0.00 0.01 0.02 0.03 0.04 0.04 0.03
0.00 0.00 0.00 0.00 0.00 0.00 0.00 0.00 0.00 0.00 0.00 0.00 0.00 0.00 0.00 0.00 0.00 0.00 0.01 0.02 0.03 0.04 0.03 0.01 0.02 0.02 0.03 0.04 0.05 0.05 0.06 0.05 0.06 0.07 0.06 0.06 0.06 0.04 0.02 0.02 0.02 0.02 0.02 0.04
0.00 0.00 0.00 0.00 0.00 0.00 0.00 0.00 0.00 0.00 0.00 0.00 0.00 0.00 0.00 0.00 0.01 0.03 0.02 0.03 0.04 0.05 0.02 0.02 0.02 0.04 0.05 0.05 0.06 0.05 0.05 0.05 0.05 0.05 0.04 0.04 0.03 0.04 0.04 0.03 0.02 0.03 0.04 0.03
0.00 0.00 0.00 0.00 0.00 0.00 0.00 0.00 0.00 0.00 0.00 0.00 0.00 0.00 0.00 0.00 0.02 0.03 0.03 0.05 0.05 0.04 0.03 0.03 0.04 0.06 0.06 0.07 0.06 0.05 0.05 0.05 0.05 0.04 0.04 0.03 0.03 0.02 0.03 0.03 0.03 0.04 0.03 0.04
0.00 0.00 0.00 0.00 0.00 0.00 0.00 0.00 0.00 0.00 0.00 0.00 0.00 0.00 0.00 0.01 0.02 0.03 0.04 0.05 0.04 0.05 0.04 0.05 0.07 0.07 0.06 0.06 0.06 0.05 0.04 0.04 0.04 0.04 0.03 0.03 0.03 0.03 0.02 0.03 0.03 0.03 0.03 0.05
0.00 0.00 0.00 0.00 0.00 0.00 0.01 0.00 0.00 0.00 0.00 0.00 0.00 0.01 0.01 0.02 0.03 0.03 0.04 0.05 0.06 0.06 0.06 0.07 0.06 0.06 0.06 0.05 0.04 0.04 0.04 0.04 0.04 0.04 0.03 0.03 0.03 0.02 0.02 0.02 0.03 0.03 0.03 0.03
0.00 0.00 0.00 0.00 0.00 0.00 0.00 0.00 0.00 0.00 0.00 0.00 0.00 0.01 0.02 0.02 0.02 0.02 0.04 0.05 0.06 0.06 0.06 0.06 0.06 0.05 0.05 0.05 0.05 0.05 0.05 0.05 0.04 0.04 0.04 0.03 0.02 0.02 0.03 0.02 0.02 0.02 0.03 0.03
0.00 0.00 0.00 0.00 0.00 0.00 0.00 0.00 0.00 0.00 0.00 0.00 0.00 0.01 0.02 0.02 0.02 0.04 0.05 0.06 0.06 0.06 0.05 0.05 0.06 0.07 0.06 0.04 0.04 0.05 0.04 0.04 0.04 0.03 0.03 0.03 0.02 0.01 0.01 0.01 0.02 0.03 0.03 0.04

GFSNW_prec_precacc12_306.txt.gz
Total_Precipitation_Accumulation
0.02 0.02 0.01 0.01 0.02 0.02 0.00 0.00 0.00 0.00 0.00 0.00 0.00 0.00 0.00 0.00 0.00 0.00 0.00 0.00 0.02 0.04 0.04 0.04 0.01 0.01 0.04 0.00 0.02 0.02 0.01 0.10 0.07 0.10 0.09 0.09 0.27 0.08 0.03 0.02 0.01 0.00 0.00 0.00
0.02 0.02 0.02 0.02 0.02 0.03 0.01 0.00 0.00 0.00 0.00 0.01 0.02 0.00 0.00 0.00 0.00 0.00 0.00 0.00 0.01 0.03 0.04 0.13 0.01 0.01 0.00 0.00 0.02 0.04 0.03 0.11 0.10 0.22 0.28 0.23 0.37 0.36 0.14 0.05 0.03 0.00 0.00 0.00
0.02 0.02 0.03 0.03 0.02 0.02 0.00 0.00 0.00 0.00 0.00 0.00 0.03 0.03 0.00 0.00 0.00 0.00 0.00 0.00 0.01 0.03 0.01 0.02 0.02 0.02 0.02 0.00 0.01 0.01 0.05 0.07 0.12 0.19 0.43 0.47 0.37 0.32 0.19 0.12 0.12 0.02 0.01 0.00
0.02 0.03 0.03 0.04 0.03 0.02 0.00 0.01 0.01 0.03 0.01 0.00 0.01 0.01 0.01 0.00 0.01 0.01 0.00 0.00 0.00 0.05 0.09 0.03 0.00 0.00 0.01 0.00 0.01 0.00 0.01 0.02 0.03 0.08 0.09 0.12 0.18 0.19 0.20 0.15 0.08 0.10 0.04 0.02
0.02 0.03 0.03 0.03 0.03 0.02 0.01 0.05 0.07 0.10 0.04 0.00 0.01 0.00 0.00 0.00 0.01 0.02 0.00 0.01 0.00 0.00 0.04 0.07 0.06 0.05 0.08 0.05 0.02 0.01 0.01 0.02 0.03 0.14 0.13 0.09 0.12 0.15 0.18 0.16 0.11 0.11 0.08 0.05
0.03 0.03 0.03 0.03 0.03 0.05 0.05 0.04 0.05 0.18 0.03 0.00 0.01 0.00 0.02 0.01 0.01 0.01 0.00 0.00 0.00 0.00 0.00 0.00 0.00 0.02 0.15 0.20 0.19 0.08 0.03 0.05 0.06 0.14 0.16 0.16 0.09 0.28 0.30 0.32 0.36 0.27 0.26 0.17
0.04 0.03 0.04 0.04 0.03 0.07 0.10 0.06 0.09 0.13 0.03 0.00 0.00 0.00 0.01 0.00 0.00 0.01 0.00 0.00 0.00 0.00 0.00 0.00 0.00 0.01 0.10 0.05 0.04 0.05 0.09 0.08 0.11 0.10 0.17 0.20 0.23 0.13 0.27 0.25 0.23 0.25 0.19 0.07
0.04 0.03 0.04 0.04 0.03 0.04 0.06 0.05 0.09 0.11 0.07 0.00 0.00 0.00 0.00 0.00 0.00 0.00 0.00 0.00 0.00 0.00 0.00 0.00 0.00 0.00 0.01 0.00 0.00 0.02 0.09 0.09 0.12 0.16 0.16 0.18 0.10 0.10 0.17 0.15 0.18 0.15 0.12 0.07
0.05 0.04 0.04 0.03 0.02 0.03 0.04 0.03 0.06 0.11 0.15 0.01 0.00 0.01 0.01 0.01 0.01 0.00 0.00 0.00 0.00 0.00 0.00 0.01 0.00 0.00 0.00 0.00 0.00 0.00 0.00 0.02 0.08 0.15 0.13 0.12 0.16 0.22 0.33 0.15 0.13 0.05 0.07 0.06
0.05 0.04 0.04 0.03 0.02 0.02 0.04 0.02 0.04 0.13 0.17 0.01 0.00 0.02 0.04 0.02 0.03 0.02 0.00 0.00 0.00 0.00 0.00 0.01 0.01 0.01 0.00 0.01 0.01 0.00 0.00 0.00 0.05 0.12 0.13 0.13 0.14 0.19 0.16 0.15 0.13 0.05 0.10 0.10
0.05 0.04 0.03 0.03 0.01 0.02 0.03 0.02 0.02 0.12 0.15 0.02 0.00 0.00 0.01 0.02 0.03 0.03 0.00 0.01 0.01 0.01 0.01 0.04 0.02 0.02 0.00 0.02 0.02 0.01 0.00 0.00 0.02 0.07 0.09 0.08 0.04 0.05 0.10 0.13 0.08 0.09 0.09 0.13
0.05 0.03 0.03 0.02 0.02 0.02 0.02 0.04 0.03 0.09 0.14 0.03 0.00 0.00 0.00 0.00 0.00 0.02 0.02 0.02 0.03 0.05 0.11 0.09 0.06 0.03 0.03 0.01 0.02 0.00 0.00 0.00 0.01 0.05 0.09 0.07 0.04 0.09 0.07 0.04 0.04 0.02 0.05 0.07
0.04 0.03 0.03 0.02 0.01 0.01 0.02 0.04 0.03 0.07 0.05 0.01 0.00 0.00 0.00 0.00 0.00 0.00 0.02 0.00 0.02 0.04 0.16 0.17 0.12 0.09 0.05 0.04 0.01 0.00 0.00 0.00 0.00 0.00 0.02 0.00 0.04 0.03 0.00 0.00 0.00 0.00 0.01 0.03
0.03 0.02 0.02 0.01 0.01 0.01 0.01 0.03 0.03 0.03 0.02 0.01 0.00 0.00 0.00 0.00 0.00 0.00 0.00 0.00 0.01 0.08 0.13 0.19 0.13 0.12 0.05 0.03 0.01 0.00 0.00 0.00 0.00 0.00 0.00 0.00 0.01 0.00 0.00 0.00 0.00 0.00 0.00 0.00
0.03 0.01 0.01 0.01 0.01 0.01 0.01 0.01 0.00 0.01 0.02 0.02 0.00 0.00 0.00 0.00 0.00 0.00 0.00 0.00 0.02 0.05 0.08 0.11 0.12 0.05 0.05 0.02 0.01 0.01 0.01 0.01 0.01 0.00 0.00 0.02 0.00 0.00 0.00 0.01 0.00 0.00 0.02 0.03
0.01 0.00 0.00 0.00 0.00 0.01 0.01 0.01 0.01 0.03 0.06 0.08 0.01 0.00 0.00 0.00 0.00 0.00 0.00 0.00 0.02 0.08 0.11 0.08 0.05 0.05 0.11 0.05 0.02 0.02 0.01 0.01 0.02 0.01 0.00 0.01 0.00 0.00 0.00 0.01 0.01 0.01 0.02 0.02
0.00 0.00 0.00 0.00 0.01 0.02 0.01 0.00 0.01 0.04 0.09 0.11 0.03 0.00 0.00 0.00 0.00 0.00 0.00 0.00 0.00 0.02 0.06 0.06 0.06 0.04 0.06 0.05 0.04 0.02 0.01 0.01 0.00 0.01 0.01 0.01 0.00 0.01 0.00 0.01 0.00 0.00 0.00 0.01
0.00 0.00 0.00 0.00 0.03 0.01 0.01 0.00 0.00 0.03 0.06 0.03 0.02 0.00 0.00 0.00 0.00 0.00 0.00 0.00 0.01 0.00 0.02 0.02 0.03 0.02 0.02 0.03 0.03 0.02 0.01 0.01 0.01 0.01 0.01 0.02 0.01 0.00 0.00 0.00 0.00 0.00 0.00 0.00
0.00 0.00 0.00 0.00 0.00 0.00 0.00 0.00 0.01 0.00 0.02 0.03 0.01 0.01 0.00 0.00 0.00 0.00 0.00 0.01 0.04 0.02 0.01 0.01 0.01 0.02 0.04 0.05 0.04 0.03 0.03 0.05 0.04 0.02 0.00 0.01 0.01 0.01 0.01 0.00 0.01 0.01 0.01 0.01
0.00 0.00 0.00 0.00 0.00 0.00 0.00 0.00 0.04 0.01 0.00 0.00 0.01 0.00 0.00 0.00 0.00 0.00 0.00 0.01 0.04 0.05 0.03 0.01 0.01 0.04 0.05 0.06 0.07 0.07 0.05 0.05 0.05 0.04 0.03 0.02 0.01 0.01 0.01 0.02 0.02 0.03 0.03 0.02
0.00 0.00 0.00 0.00 0.00 0.00 0.00 0.00 0.00 0.00 0.00 0.00 0.00 0.00 0.00 0.00 0.00 0.00 0.01 0.02 0.03 0.07 0.04 0.03 0.03 0.04 0.05 0.06 0.06 0.07 0.07 0.06 0.06 0.07 0.06 0.05 0.06 0.04 0.03 0.02 0.02 0.01 0.02 0.03
0.00 0.00 0.00 0.00 0.00 0.00 0.00 0.00 0.00 0.00 0.00 0.00 0.00 0.00 0.00 0.00 0.01 0.02 0.02 0.03 0.05 0.06 0.04 0.03 0.03 0.05 0.06 0.07 0.07 0.07 0.07 0.07 0.06 0.06 0.05 0.04 0.03 0.04 0.04 0.03 0.03 0.03 0.03 0.03
0.00 0.00 0.00 0.00 0.00 0.00 0.00 0.00 0.00 0.00 0.00 0.00 0.00 0.00 0.00 0.00 0.02 0.02 0.03 0.06 0.06 0.05 0.04 0.04 0.06 0.07 0.07 0.07 0.07 0.06 0.06 0.06 0.06 0.05 0.05 0.04 0.03 0.02 0.02 0.02 0.02 0.02 0.02 0.03
0.00 0.00 0.00 0.00 0.00 0.00 0.00 0.00 0.00 0.00 0.00 0.00 0.00 0.00 0.00 0.01 0.02 0.03 0.04 0.06 0.05 0.06 0.05 0.07 0.09 0.07 0.06 0.06 0.06 0.05 0.05 0.05 0.05 0.05 0.04 0.04 0.03 0.02 0.01 0.02 0.02 0.02 0.02 0.03
0.00 0.00 0.00 0.00 0.00 0.01 0.01 0.00 0.00 0.00 0.00 0.00 0.00 0.01 0.01 0.01 0.03 0.03 0.04 0.05 0.06 0.07 0.07 0.08 0.06 0.05 0.05 0.04 0.04 0.05 0.04 0.05 0.05 0.04 0.04 0.03 0.03 0.02 0.01 0.01 0.02 0.02 0.02 0.02
0.00 0.00 0.00 0.00 0.01 0.01 0.00 0.00 0.00 0.00 0.00 0.01 0.01 0.01 0.02 0.02 0.02 0.02 0.03 0.04 0.06 0.07 0.05 0.05 0.04 0.03 0.04 0.04 0.04 0.05 0.05 0.05 0.05 0.05 0.04 0.04 0.03 0.03 0.02 0.02 0.01 0.01 0.01 0.02
0.00 0.01 0.01 0.01 0.00 0.00 0.00 0.00 0.00 0.00 0.00 0.00 0.00 0.01 0.02 0.02 0.02 0.04 0.05 0.05 0.06 0.05 0.04 0.04 0.04 0.05 0.04 0.03 0.03 0.04 0.04 0.04 0.04 0.04 0.03 0.04 0.02 0.01 0.02 0.01 0.01 0.01 0.02 0.02

GFSNW_prec_precacc12_312.txt.gz
Total_Precipitation_Accumulation
0.02 0.02 0.01 0.01 0.00 0.00 0.00 0.00 0.00 0.00 0.00 0.00 0.00 0.00 0.00 0.00 0.00 0.00 0.00 0.00 0.02 0.05 0.03 0.03 0.01 0.03 0.06 0.00 0.06 0.07 0.05 0.11 0.05 0.07 0.18 0.22 0.35 0.11 0.10 0.20 0.17 0.06 0.01 0.06
0.03 0.02 0.02 0.01 0.01 0.00 0.01 0.00 0.00 0.00 0.00 0.00 0.00 0.00 0.00 0.00 0.00 0.00 0.00 0.00 0.02 0.04 0.03 0.09 0.01 0.01 0.00 0.00 0.06 0.10 0.05 0.12 0.12 0.16 0.21 0.15 0.37 0.37 0.15 0.07 0.17 0.12 0.01 0.03
0.04 0.03 0.02 0.02 0.01 0.00 0.00 0.00 0.00 0.00 0.00 0.00 0.00 0.01 0.00 0.00 0.00 0.00 0.00 0.00 0.01 0.01 0.00 0.01 0.01 0.01 0.01 0.00 0.02 0.02 0.03 0.11 0.18 0.17 0.28 0.21 0.15 0.19 0.09 0.11 0.20 0.17 0.03 0.01
0.05 0.04 0.03 0.03 0.02 0.00 0.00 0.00 0.00 0.00 0.00 0.00 0.00 0.01 0.00 0.00 0.01 0.00 0.00 0.00 0.00 0.02 0.04 0.02 0.00 0.00 0.01 0.00 0.01 0.00 0.01 0.07 0.10 0.11 0.13 0.08 0.07 0.10 0.15 0.10 0.14 0.19 0.10 0.04
0.05 0.05 0.04 0.04 0.03 0.01 0.00 0.01 0.03 0.04 0.01 0.00 0.00 0.00 0.00 0.01 0.01 0.00 0.00 0.01 0.00 0.00 0.02 0.05 0.03 0.01 0.03 0.02 0.01 0.01 0.01 0.04 0.08 0.16 0.10 0.03 0.04 0.08 0.14 0.18 0.15 0.15 0.14 0.08
0.05 0.05 0.05 0.06 0.04 0.03 0.03 0.03 0.04 0.11 0.02 0.00 0.00 0.00 0.01 0.01 0.01 0.01 0.00 0.00 0.00 0.00 0.00 0.00 0.00 0.00 0.00 0.01 0.06 0.02 0.01 0.04 0.07 0.09 0.06 0.09 0.03 0.13 0.15 0.20 0.23 0.19 0.14 0.13
0.05 0.05 0.06 0.08 0.06 0.05 0.06 0.06 0.07 0.09 0.02 0.00 0.00 0.00 0.00 0.00 0.00 0.01 0.00 0.00 0.00 0.00 0.00 0.00 0.00 0.00 0.00 0.00 0.01 0.00 0.01 0.03 0.10 0.09 0.10 0.05 0.07 0.07 0.09 0.11 0.17 0.19 0.14 0.07
0.05 0.05 0.07 0.11 0.09 0.09 0.05 0.06 0.10 0.09 0.06 0.00 0.00 0.00 0.00 0.00 0.00 0.00 0.00 0.00 0.00 0.00 0.00 0.00 0.00 0.00 0.00 0.00 0.00 0.00 0.00 0.02 0.08 0.07 0.04 0.04 0.06 0.05 0.10 0.09 0.11 0.10 0.06 0.04
0.05 0.05 0.08 0.10 0.09 0.16 0.09 0.05 0.09 0.12 0.12 0.01 0.00 0.01 0.01 0.02 0.00 0.00 0.00 0.00 0.00 0.00 0.00 0.01 0.00 0.01 0.00 0.00 0.00 0.00 0.00 0.00 0.03 0.06 0.05 0.03 0.03 0.03 0.10 0.08 0.08 0.02 0.02 0.02
0.06 0.06 0.07 0.08 0.14 0.16 0.10 0.05 0.07 0.13 0.13 0.01 0.01 0.03 0.06 0.03 0.03 0.01 0.00 0.00 0.00 0.00 0.00 0.01 0.01 0.01 0.00 0.00 0.00 0.00 0.00 0.00 0.00 0.02 0.03 0.03 0.02 0.00 0.02 0.06 0.04 0.00 0.01 0.02
0.06 0.06 0.07 0.10 0.19 0.09 0.08 0.03 0.03 0.10 0.12 0.02 0.00 0.00 0.02 0.06 0.07 0.06 0.01 0.00 0.00 0.00 0.01 0.04 0.02 0.01 0.00 0.01 0.01 0.00 0.00 0.00 0.00 0.01 0.02 0.02 0.00 0.00 0.01 0.01 0.00 0.00 0.01 0.01
0.05 0.05 0.08 0.16 0.11 0.05 0.04 0.02 0.01 0.07 0.11 0.02 0.00 0.00 0.01 0.01 0.01 0.04 0.02 0.01 0.01 0.01 0.04 0.05 0.04 0.02 0.03 0.02 0.03 0.00 0.00 0.00 0.00 0.00 0.01 0.01 0.00 0.01 0.01 0.01 0.01 0.00 0.01 0.00
0.05 0.07 0.13 0.09 0.06 0.03 0.01 0.02 0.02 0.05 0.05 0.01 0.00 0.00 0.00 0.00 0.00 0.00 0.01 0.00 0.00 0.00 0.07 0.07 0.06 0.07 0.03 0.03 0.02 0.02 0.00 0.00 0.00 0.01 0.01 0.01 0.01 0.01 0.00 0.00 0.00 0.00 0.00 0.00
0.07 0.09 0.07 0.05 0.04 0.01 0.01 0.01 0.02 0.04 0.02 0.01 0.00 0.00 0.00 0.00 0.00 0.00 0.00 0.00 0.00 0.01 0.03 0.10 0.09 0.09 0.04 0.04 0.02 0.03 0.02 0.01 0.01 0.01 0.01 0.01 0.00 0.00 0.00 0.00 0.00 0.00 0.00 0.00
0.07 0.04 0.03 0.03 0.01 0.00 0.00 0.01 0.00 0.01 0.02 0.02 0.00 0.00 0.00 0.00 0.00 0.00 0.00 0.00 0.00 0.02 0.06 0.08 0.09 0.05 0.06 0.04 0.02 0.03 0.02 0.03 0.03 0.03 0.02 0.02 0.00 0.00 0.00 0.00 0.00 0.00 0.01 0.01
0.02 0.02 0.02 0.01 0.00 0.00 0.01 0.01 0.01 0.03 0.04 0.13 0.02 0.01 0.00 0.00 0.00 0.00 0.00 0.00 0.00 0.02 0.05 0.06 0.05 0.05 0.11 0.10 0.03 0.04 0.02 0.02 0.04 0.04 0.02 0.01 0.01 0.00 0.00 0.01 0.00 0.00 0.01 0.01
0.00 0.01 0.00 0.00 0.01 0.01 0.01 0.00 0.01 0.02 0.07 0.11 0.04 0.01 0.00 0.00 0.00 0.00 0.00 0.00 0.00 0.01 0.05 0.07 0.06 0.05 0.06 0.08 0.06 0.05 0.03 0.03 0.05 0.03 0.02 0.01 0.01 0.02 0.01 0.01 0.00 0.00 0.00 0.00
0.00 0.00 0.00 0.01 0.02 0.01 0.01 0.00 0.00 0.01 0.05 0.05 0.03 0.00 0.00 0.00 0.00 0.00 0.00 0.00 0.01 0.01 0.03 0.04 0.04 0.03 0.03 0.05 0.06 0.05 0.03 0.02 0.03 0.02 0.04 0.05 0.03 0.02 0.01 0.01 0.00 0.00 0.00 0.00
0.00 0.00 0.00 0.00 0.00 0.00 0.00 0.00 0.00 0.00 0.02 0.06 0.03 0.01 0.00 0.00 0.00 0.00 0.00 0.00 0.04 0.05 0.03 0.04 0.03 0.03 0.06 0.10 0.08 0.06 0.07 0.07 0.07 0.04 0.03 0.03 0.03 0.02 0.02 0.01 0.01 0.01 0.01 0.01
0.00 0.00 0.00 0.00 0.00 0.00 0.00 0.00 0.03 0.01 0.00 0.00 0.01 0.00 0.00 0.00 0.00 0.00 0.00 0.01 0.05 0.07 0.05 0.02 0.01 0.06 0.08 0.09 0.10 0.10 0.08 0.08 0.07 0.05 0.04 0.03 0.02 0.02 0.02 0.02 0.03 0.03 0.03 0.02
0.00 0.00 0.00 0.00 0.00 0.00 0.00 0.00 0.00 0.00 0.00 0.00 0.00 0.00 0.00 0.00 0.00 0.00 0.00 0.01 0.03 0.10 0.08 0.04 0.03 0.05 0.06 0.06 0.06 0.07 0.08 0.08 0.08 0.09 0.08 0.08 0.07 0.05 0.03 0.03 0.02 0.02 0.02 0.03
0.00 0.00 0.00 0.00 0.00 0.00 0.00 0.00 0.00 0.00 0.01 0.00 0.00 0.00 0.00 0.00 0.01 0.02 0.01 0.02 0.06 0.09 0.07 0.03 0.04 0.07 0.06 0.05 0.05 0.05 0.06 0.07 0.07 0.08 0.07 0.06 0.06 0.06 0.05 0.04 0.03 0.03 0.03 0.02
0.00 0.00 0.00 0.00 0.00 0.00 0.00 0.00 0.00 0.00 0.00 0.00 0.00 0.00 0.00 0.01 0.01 0.02 0.03 0.06 0.06 0.07 0.03 0.04 0.07 0.06 0.04 0.04 0.03 0.03 0.03 0.04 0.05 0.05 0.05 0.06 0.05 0.05 0.05 0.04 0.04 0.03 0.02 0.02
0.00 0.00 0.00 0.00 0.00 0.01 0.02 0.02 0.02 0.01 0.00 0.00 0.01 0.00 0.01 0.01 0.02 0.03 0.05 0.07 0.04 0.06 0.04 0.07 0.08 0.05 0.03 0.03 0.02 0.02 0.02 0.02 0.02 0.03 0.03 0.03 0.04 0.03 0.03 0.04 0.04 0.03 0.03 0.02
0.00 0.00 0.01 0.01 0.02 0.02 0.01 0.00 0.01 0.00 0.00 0.01 0.01 0.01 0.01 0.02 0.03 0.03 0.04 0.04 0.04 0.05 0.06 0.06 0.06 0.03 0.02 0.02 0.02 0.02 0.02 0.02 0.02 0.03 0.03 0.03 0.03 0.03 0.02 0.03 0.03 0.03 0.03 0.02
0.00 0.01 0.01 0.01 0.02 0.01 0.00 0.00 0.00 0.00 0.00 0.01 0.01 0.01 0.02 0.03 0.02 0.01 0.03 0.03 0.04 0.06 0.05 0.06 0.03 0.02 0.02 0.02 0.02 0.02 0.03 0.03 0.03 0.03 0.04 0.04 0.04 0.04 0.03 0.03 0.03 0.03 0.03 0.02
0.00 0.01 0.01 0.01 0.01 0.00 0.00 0.00 0.00 0.00 0.01 0.00 0.01 0.01 0.02 0.03 0.02 0.03 0.03 0.04 0.05 0.04 0.04 0.03 0.03 0.05 0.03 0.02 0.02 0.02 0.02 0.03 0.02 0.02 0.02 0.04 0.03 0.02 0.02 0.02 0.02 0.03 0.03 0.02